Flag for Niger Weather past 2 weeks in Niamey, Niger

Now
79 °F

Clear.


Feels Like: 77 °F
Forecast: 73 / 98 °F
Wind: 7 mph from Northeast

Location: Niamey-Aero

Current Time: Mar 4, 2015 at 1:58:19 AM

Latest Report: Mar 4, 2015 at 1:00 AM


Visibility: 4 mi

Pressure: 29.95 "Hg

Humidity: 11%

Dew point: 19 °F

Location of NiameyLocation

Historic Weather in Niamey — Graph

°F

Niamey temperature yesterday

Maximum temperature yesterday: 95 °F (at 3:00 PM)
Minimum temperature yesterday: 68 °F (at 6:00 AM)
Average temperature yesterday: 82 °F

Past Weeks' High & Low Weather Summary

 TemperatureHumidityPressure
High102 °F (Feb 19, 4:00 PM)73% (Feb 21, 9:00 AM)30.04 "Hg (Feb 21, 9:00 AM)
Low66 °F (Feb 23, 8:00 AM)4% (Feb 27, 5:00 PM)29.68 "Hg (Feb 20, 4:00 PM)
Average81 °F15%29.88 "Hg
* Reported Midnight between Feb 16 and Feb 17 — Midnight between Mar 3 and Mar 4, Niamey, Weather by CustomWeather, © 2015

Note: Actual official high and low records may vary slightly from our data, if they occured in-between our weather recording intervals... More about our weather records

Advertising

Niamey weather history for previous 24 hours

 ConditionsComfort  
Time TempWeatherWind HumidityBarometerVisibility
12:00 AM
Wed, Mar 4
79 °FClear.7 mph10%29.95 "Hg4 mi
11:00 PM
Tue, Mar 3
81 °FDuststorm.7 mph10%29.95 "Hg2 mi
10:00 PM84 °FDuststorm.7 mph9%29.95 "Hg2 mi
9:00 PM86 °FDuststorm.6 mph8%29.92 "Hg2 mi
8:00 PM88 °FDuststorm.7 mph7%29.89 "Hg2 mi
7:00 PM91 °FDuststorm.10 mph6%29.86 "Hg2 mi
6:00 PM93 °FDuststorm.13 mph6%29.86 "Hg3 mi
5:00 PM95 °FDuststorm.12 mph5%29.86 "Hg3 mi
4:00 PM95 °FClear.10 mph5%29.86 "Hg4 mi
3:00 PM95 °FClear.15 mph5%29.89 "Hg4 mi
2:00 PM93 °FClear.16 mph6%29.89 "Hg4 mi
1:00 PM91 °FClear.15 mph7%29.95 "Hg4 mi
12:00 PM90 °FClear.18 mph7%29.98 "Hg4 mi
11:00 AM86 °FClear.20 mph7%29.98 "Hg4 mi
10:00 AM81 °FClear.16 mph8%29.98 "Hg4 mi
9:00 AM75 °FClear.6 mph10%29.95 "Hg5 mi
8:00 AM70 °FClear.7 mph12%29.92 "Hg5 mi
7:00 AM68 °FClear.8 mph13%29.89 "Hg10 mi
6:00 AM68 °FClear.8 mph12%29.86 "Hg10 mi
5:00 AM70 °FClear.8 mph12%29.86 "Hg10 mi
4:00 AM70 °FClear.7 mph12%29.86 "Hg10 mi
3:00 AM70 °FClear.6 mph12%29.86 "Hg10 mi
2:00 AM72 °FClear.6 mph12%29.89 "Hg10 mi
1:00 AM73 °FClear.5 mph11%29.92 "Hg10 mi
Weather by CustomWeather, © 2015

See weather overviewHow to use our weather pages